When you browse on this site, cookies collect data to enhance your experience and personalize the content and advertising you see.
Visit our Privacy Policy to learn more. By continuing to use the site, you agree to this use of cookies and data.
  • en Suisse
  • Liste des pays
  • À 7 jours
  • Température de l'eau
  • Carte météo
  • Widgets météo
  • user-avatar
    Se connecter

    Météo par heure à Zybino

    Ce jour, 26 Août, Lundi

    Heure Température Précipitation Vent Pression Humidité
    00:00 +12°C° 0 mm 2 m/s 755 mmHg 93%
    01:00 +12°C° 0 mm 2 m/s 755 mmHg 92%
    02:00 +12°C° 0 mm 1 m/s 756 mmHg 92%
    03:00 +11°C° 0 mm 1 m/s 756 mmHg 92%
    04:00 +11°C° 0 mm 1 m/s 756 mmHg 91%
    05:00 +10°C° 0 mm 0 m/s 756 mmHg 91%
    06:00 +10°C° 0 mm 0 m/s 756 mmHg 91%
    07:00 +11°C° 0 mm 0 m/s 756 mmHg 86%
    08:00 +13°C° 0 mm 0 m/s 756 mmHg 80%
    09:00 +15°C° 0 mm 0 m/s 756 mmHg 75%
    10:00 +16°C° 0 mm 0 m/s 756 mmHg 71%
    11:00 +20°C° 0 mm 1 m/s 755 mmHg 66%
    12:00 +21°C° 0 mm 1 m/s 755 mmHg 62%
    13:00 +20°C° 0 mm 2 m/s 755 mmHg 60%
    14:00 +21°C° 0 mm 2 m/s 755 mmHg 59%
    15:00 +21°C° 0 mm 2 m/s 754 mmHg 57%
    16:00 +21°C° 0 mm 2 m/s 754 mmHg 61%
    17:00 +21°C° 0 mm 2 m/s 753 mmHg 66%
    18:00 +20°C° 0 mm 2 m/s 753 mmHg 70%
    19:00 +19°C° 0 mm 2 m/s 752 mmHg 73%
    20:00 +17°C° 0 mm 2 m/s 752 mmHg 77%
    21:00 +16°C° 0 mm 2 m/s 752 mmHg 80%
    22:00 +16°C° 0 mm 3 m/s 752 mmHg 81%
    23:00 +14°C° 0 mm 3 m/s 751 mmHg 83%

    Demain, 27 Août, Mardi

    Heure Température Précipitation Vent Pression Humidité
    00:00 +14°C° 0 mm 3 m/s 751 mmHg 84%
    01:00 +14°C° 0 mm 3 m/s 751 mmHg 84%
    02:00 +14°C° 0 mm 4 m/s 750 mmHg 84%
    03:00 +14°C° 0 mm 4 m/s 750 mmHg 84%
    04:00 +14°C° 0 mm 4 m/s 750 mmHg 85%
    05:00 +14°C° 0 mm 4 m/s 749 mmHg 86%
    06:00 +14°C° 0 mm 4 m/s 749 mmHg 87%
    07:00 +15°C° 0.1 mm 5 m/s 749 mmHg 87%
    08:00 +16°C° 0.1 mm 5 m/s 749 mmHg 86%
    09:00 +17°C° 0.1 mm 5 m/s 749 mmHg 85%
    10:00 +19°C° 0.1 mm 5 m/s 748 mmHg 78%
    11:00 +21°C° 0.1 mm 6 m/s 748 mmHg 71%
    12:00 +22°C° 0.1 mm 6 m/s 748 mmHg 64%
    13:00 +22°C° 0 mm 6 m/s 748 mmHg 62%
    14:00 +22°C° 0 mm 6 m/s 748 mmHg 59%
    15:00 +22°C° 0 mm 6 m/s 749 mmHg 56%
    16:00 +21°C° 0 mm 5 m/s 749 mmHg 60%
    17:00 +21°C° 0 mm 4 m/s 749 mmHg 65%
    18:00 +20°C° 0 mm 4 m/s 749 mmHg 69%
    19:00 +18°C° 0 mm 4 m/s 749 mmHg 72%
    20:00 +17°C° 0 mm 4 m/s 749 mmHg 75%
    21:00 +14°C° 0 mm 4 m/s 750 mmHg 77%
    22:00 +13°C° 0 mm 3 m/s 750 mmHg 79%
    23:00 +12°C° 0 mm 3 m/s 750 mmHg 81%

    Après-demain, 28 Août, Mercredi

    Heure Température Précipitation Vent Pression Humidité
    00:00 +11°C° 0 mm 3 m/s 750 mmHg 83%
    01:00 +11°C° 0 mm 3 m/s 751 mmHg 84%
    02:00 +10°C° 0 mm 3 m/s 751 mmHg 85%
    03:00 +9°C° 0 mm 3 m/s 751 mmHg 86%
    04:00 +9°C° 0 mm 3 m/s 751 mmHg 88%
    05:00 +9°C° 0 mm 3 m/s 751 mmHg 90%
    06:00 +9°C° 0 mm 3 m/s 752 mmHg 92%
    07:00 +10°C° 0 mm 4 m/s 752 mmHg 84%
    08:00 +10°C° 0 mm 5 m/s 752 mmHg 77%
    09:00 +12°C° 0 mm 5 m/s 753 mmHg 69%
    10:00 +13°C° 0 mm 5 m/s 752 mmHg 64%
    11:00 +14°C° 0 mm 5 m/s 752 mmHg 58%
    12:00 +14°C° 0 mm 5 m/s 752 mmHg 53%
    13:00 +15°C° 0 mm 5 m/s 752 mmHg 51%
    14:00 +15°C° 0 mm 5 m/s 753 mmHg 49%
    15:00 +16°C° 0 mm 5 m/s 753 mmHg 48%
    16:00 +15°C° 0 mm 4 m/s 753 mmHg 52%
    17:00 +15°C° 0 mm 4 m/s 753 mmHg 56%
    18:00 +14°C° 0 mm 3 m/s 753 mmHg 61%
    19:00 +12°C° 0 mm 3 m/s 753 mmHg 63%
    20:00 +11°C° 0 mm 3 m/s 753 mmHg 66%
    21:00 +9°C° 0 mm 3 m/s 754 mmHg 68%
    22:00 +8°C° 0 mm 2 m/s 754 mmHg 70%
    23:00 +8°C° 0 mm 2 m/s 754 mmHg 72%

    29 Août, Jeudi

    Heure Température Précipitation Vent Pression Humidité
    00:00 +7°C° 0 mm 2 m/s 754 mmHg 74%
    01:00 +7°C° 0 mm 2 m/s 754 mmHg 75%
    02:00 +7°C° 0 mm 1 m/s 754 mmHg 76%
    03:00 +7°C° 0 mm 1 m/s 754 mmHg 77%
    04:00 +7°C° 0 mm 1 m/s 754 mmHg 76%
    05:00 +6°C° 0 mm 2 m/s 754 mmHg 76%
    06:00 +6°C° 0 mm 2 m/s 754 mmHg 76%
    07:00 +8°C° 0 mm 2 m/s 754 mmHg 71%
    08:00 +9°C° 0 mm 2 m/s 754 mmHg 66%
    09:00 +12°C° 0 mm 2 m/s 754 mmHg 61%
    10:00 +13°C° 0 mm 2 m/s 754 mmHg 61%
    11:00 +13°C° 0 mm 2 m/s 754 mmHg 62%
    12:00 +14°C° 0 mm 2 m/s 754 mmHg 63%
    13:00 +15°C° 0 mm 2 m/s 754 mmHg 62%
    14:00 +17°C° 0 mm 3 m/s 753 mmHg 61%
    15:00 +18°C° 0 mm 3 m/s 753 mmHg 60%
    16:00 +18°C° 0 mm 3 m/s 753 mmHg 64%
    17:00 +18°C° 0 mm 2 m/s 753 mmHg 69%
    18:00 +19°C° 0 mm 2 m/s 752 mmHg 73%
    19:00 +17°C° 0 mm 2 m/s 752 mmHg 77%
    20:00 +16°C° 0 mm 2 m/s 752 mmHg 81%
    21:00 +15°C° 0 mm 2 m/s 752 mmHg 86%
    22:00 +14°C° 0 mm 2 m/s 752 mmHg 88%
    23:00 +13°C° 0 mm 2 m/s 752 mmHg 91%

    30 Août, Vendredi

    Heure Température Précipitation Vent Pression Humidité
    00:00 +13°C° 0 mm 2 m/s 752 mmHg 93%
    01:00 +12°C° 0 mm 2 m/s 752 mmHg 94%
    02:00 +12°C° 0 mm 1 m/s 752 mmHg 94%
    03:00 +12°C° 0 mm 1 m/s 752 mmHg 94%
    04:00 +11°C° 0 mm 1 m/s 752 mmHg 95%
    05:00 +11°C° 0 mm 1 m/s 752 mmHg 95%
    06:00 +10°C° 0 mm 1 m/s 752 mmHg 95%
    07:00 +11°C° 0 mm 1 m/s 752 mmHg 92%
    08:00 +12°C° 0 mm 1 m/s 752 mmHg 89%
    09:00 +14°C° 0 mm 1 m/s 752 mmHg 85%
    10:00 +14°C° 0.2 mm 1 m/s 753 mmHg 85%
    11:00 +14°C° 0.2 mm 1 m/s 753 mmHg 85%
    12:00 +14°C° 0.2 mm 1 m/s 753 mmHg 85%
    13:00 +15°C° 0.1 mm 1 m/s 752 mmHg 86%
    14:00 +15°C° 0.1 mm 1 m/s 752 mmHg 86%
    15:00 +15°C° 0.1 mm 1 m/s 752 mmHg 87%
    16:00 +15°C° 0 mm 1 m/s 752 mmHg 86%
    17:00 +16°C° 0 mm 1 m/s 752 mmHg 85%
    18:00 +16°C° 0 mm 1 m/s 752 mmHg 85%
    19:00 +15°C° 0 mm 1 m/s 752 mmHg 86%
    20:00 +15°C° 0 mm 1 m/s 752 mmHg 88%
    21:00 +14°C° 0 mm 1 m/s 752 mmHg 90%
    22:00 +14°C° 0 mm 1 m/s 752 mmHg 89%
    23:00 +13°C° 0 mm 1 m/s 752 mmHg 89%

    31 Août, Samedi

    Heure Température Précipitation Vent Pression Humidité
    00:00 +13°C° 0 mm 1 m/s 752 mmHg 88%
    01:00 +12°C° 0 mm 2 m/s 752 mmHg 88%
    02:00 +12°C° 0 mm 2 m/s 752 mmHg 89%
    03:00 +12°C° 0 mm 2 m/s 752 mmHg 89%
    04:00 +12°C° 0 mm 2 m/s 752 mmHg 89%
    05:00 +12°C° 0 mm 1 m/s 752 mmHg 90%
    06:00 +12°C° 0 mm 1 m/s 752 mmHg 90%
    07:00 +13°C° 0 mm 1 m/s 752 mmHg 88%
    08:00 +15°C° 0 mm 1 m/s 752 mmHg 86%
    09:00 +16°C° 0 mm 1 m/s 752 mmHg 83%
    10:00 +18°C° 0 mm 1 m/s 752 mmHg 79%
    11:00 +20°C° 0 mm 1 m/s 752 mmHg 74%
    12:00 +21°C° 0 mm 1 m/s 752 mmHg 69%
    13:00 +22°C° 0.4 mm 1 m/s 752 mmHg 67%
    14:00 +21°C° 0.4 mm 2 m/s 751 mmHg 65%
    15:00 +21°C° 0.4 mm 2 m/s 751 mmHg 63%
    16:00 +21°C° 0.2 mm 2 m/s 751 mmHg 67%
    17:00 +20°C° 0.2 mm 2 m/s 751 mmHg 70%
    18:00 +21°C° 0.2 mm 1 m/s 750 mmHg 74%
    19:00 +19°C° 0.2 mm 2 m/s 750 mmHg 78%
    20:00 +17°C° 0.2 mm 2 m/s 750 mmHg 83%
    21:00 +16°C° 0.2 mm 2 m/s 750 mmHg 87%
    22:00 +16°C° 0 mm 2 m/s 750 mmHg 87%
    23:00 +15°C° 0 mm 2 m/s 750 mmHg 88%
    Voir plus